Theta_e
314 314 314 314 314 316 318 320 318 321 321 315 317 318 320 323 322 322 322 323 322 331 335 334 335 338 342 342 341 344 349 348 346 343 343 351 350 349 351 350 349 348 346 339 335 333 330 331 329 327 320 312 310 313 314 316 319 320 316 314 315 315 316 316 319 322 325 330 334 336 335 336 337 337 337 337 337 337 338 337 337 336 336 336 336 335 335 334 333 333 332 332 330 330 328 329 332
313 313 313 314 315 317 319 321 317 318 318 314 318 319 321 324 322 322 322 323 325 335 336 335 338 342 344 346 344 342 349 351 351 351 350 350 350 350 350 350 349 347 345 339 335 333 331 332 331 326 319 313 310 312 314 315 319 320 317 315 315 315 316 318 322 326 330 334 336 336 336 337 337 337 337 337 336 337 337 337 337 336 336 335 335 335 335 334 333 332 330 330 328 327 326 329 331
313 313 315 315 317 318 319 320 316 315 314 313 317 321 323 323 322 322 323 325 333 338 338 339 342 344 344 343 344 343 349 350 350 350 349 349 350 350 349 350 348 347 344 337 335 332 331 333 332 327 319 313 311 312 314 315 319 321 320 317 317 318 320 324 328 331 334 336 337 336 337 337 336 336 336 336 336 337 337 337 337 337 336 336 336 335 335 334 333 331 329 327 324 324 326 329 329
312 313 315 317 318 318 319 319 318 315 314 314 315 321 323 322 322 323 328 332 337 340 340 343 343 347 346 344 345 346 351 351 350 349 349 349 350 350 350 349 348 346 342 337 335 331 331 333 333 327 318 313 311 312 313 315 318 321 323 322 322 324 327 330 332 335 336 337 336 336 337 336 335 335 335 335 336 337 337 337 337 337 336 336 335 333 333 333 332 329 324 321 319 321 326 327 323
312 313 314 316 318 319 320 318 319 316 314 316 316 321 322 321 321 323 331 333 336 339 342 344 343 347 347 348 349 347 351 351 350 348 349 349 350 350 349 349 347 345 341 338 335 331 331 332 333 328 319 314 312 312 313 315 317 320 323 325 327 328 330 332 333 335 336 336 335 336 336 335 334 334 333 334 335 336 336 336 335 335 334 333 330 326 325 325 324 321 318 318 320 322 324 322 318
313 315 314 316 318 319 318 317 316 315 317 319 318 321 321 320 320 321 327 328 333 335 339 343 343 346 347 349 349 350 351 350 349 348 349 349 350 349 349 348 347 345 341 338 335 332 332 333 333 330 322 315 311 311 312 314 316 319 323 325 328 331 331 332 334 335 335 334 335 335 336 335 334 333 331 330 330 331 332 332 332 331 330 327 323 318 315 313 313 313 316 320 322 322 321 320 318
315 316 316 316 317 317 316 314 315 315 319 321 319 320 321 320 321 321 323 325 332 337 338 342 344 345 346 349 349 349 348 349 349 348 349 349 349 349 348 348 345 344 340 337 336 335 333 333 333 332 326 318 313 311 311 314 316 318 322 324 328 331 333 333 335 335 334 334 335 336 336 335 334 333 329 327 325 323 323 323 323 322 320 317 313 310 309 308 308 312 318 321 321 321 320 320 319
314 317 317 316 317 317 315 314 315 317 319 320 320 320 320 320 320 319 321 323 328 334 336 341 344 342 346 348 349 349 347 348 348 348 348 348 348 348 348 347 345 343 339 338 339 337 333 334 334 333 329 322 316 312 311 312 314 317 320 324 327 331 333 334 335 335 334 335 336 336 336 336 336 332 327 324 319 316 315 314 314 312 311 309 308 307 307 307 309 315 320 321 321 321 322 321 320
313 316 317 315 316 317 315 314 316 318 319 319 319 319 320 320 319 318 319 320 323 325 329 340 342 340 346 348 349 349 348 349 349 348 348 348 348 348 347 346 345 343 340 340 340 336 334 335 335 334 332 327 320 315 312 311 313 315 318 323 327 329 332 334 334 335 334 335 337 336 337 336 335 330 324 321 315 312 311 309 309 308 308 308 308 307 308 308 311 317 320 321 322 322 322 322 321
314 315 316 316 315 314 313 314 316 318 318 319 319 318 319 318 318 318 318 319 320 320 325 339 342 342 347 348 348 349 349 349 348 348 348 348 348 346 346 345 344 342 340 342 340 336 335 336 335 335 333 330 326 320 316 312 311 313 315 320 324 328 332 334 334 335 335 336 337 338 337 335 333 328 324 319 314 311 309 309 308 308 308 308 308 308 308 309 313 318 320 321 323 323 323 322 322
315 315 316 316 313 312 312 314 316 317 318 318 318 317 317 317 317 318 318 318 319 319 325 337 340 342 347 348 349 349 349 348 348 348 347 347 346 345 345 345 343 341 340 342 340 337 336 336 336 336 334 332 330 326 321 315 311 312 314 316 322 329 333 333 333 335 335 336 337 337 336 334 332 327 323 318 313 310 309 309 308 308 308 308 308 308 309 311 315 318 321 322 323 323 324 324 323
316 315 315 314 313 313 314 315 316 318 318 317 317 317 318 317 318 317 318 318 319 318 323 335 340 342 346 348 348 348 349 348 348 347 346 345 345 345 344 344 343 341 342 342 340 337 335 336 336 335 335 334 332 330 326 320 314 311 312 315 320 327 331 331 333 334 334 335 336 336 334 333 331 326 322 318 313 310 309 308 309 309 309 309 309 309 310 313 317 319 321 322 323 324 325 326 325
316 317 315 313 314 316 315 316 316 317 317 317 317 318 317 317 318 319 320 319 319 319 322 334 341 342 346 348 349 349 350 349 350 348 346 346 345 345 344 345 343 343 342 342 341 340 338 338 337 336 336 335 334 333 329 326 320 313 311 313 316 322 329 331 332 333 333 334 334 334 333 331 327 322 319 318 313 310 309 308 309 309 309 309 309 310 312 315 319 320 321 322 323 324 325 326 326
315 317 316 314 315 317 315 315 315 316 315 318 318 317 317 317 318 319 322 322 320 319 322 335 343 343 347 349 348 349 350 349 350 348 348 347 347 346 345 345 344 343 343 342 342 341 341 340 339 337 335 335 334 333 332 330 325 318 311 311 313 317 328 333 332 331 332 332 333 333 331 327 324 322 319 316 313 311 310 309 309 309 309 309 309 310 313 316 319 321 321 322 323 323 325 325 326
315 316 316 315 316 315 315 315 315 315 315 318 317 317 318 317 322 323 325 323 319 323 329 338 342 343 346 347 348 349 350 349 350 349 349 348 348 347 346 346 344 344 343 343 342 342 341 340 340 338 337 338 336 335 334 332 330 324 315 310 311 316 327 333 331 331 331 330 331 332 330 328 325 323 320 317 315 312 310 310 309 309 309 309 310 310 313 316 320 322 322 323 323 323 325 325 326
315 317 316 315 315 314 315 315 316 315 316 318 316 318 317 322 332 334 332 327 323 331 335 339 342 344 344 345 348 349 350 350 349 349 348 348 348 348 346 346 344 344 343 343 342 341 341 340 339 338 338 339 338 338 336 333 330 327 319 311 310 319 329 333 330 329 328 328 330 329 329 331 329 325 325 322 318 314 311 311 311 309 309 309 309 310 313 316 319 321 322 323 323 322 324 325 326
315 316 315 315 314 314 316 316 316 315 316 318 316 318 316 327 341 341 337 330 328 334 336 340 344 345 345 346 348 348 350 349 349 348 348 348 347 347 346 346 345 344 343 342 342 341 340 340 339 339 338 338 338 339 337 335 330 327 321 311 309 321 331 330 327 328 328 328 328 327 329 333 332 330 331 328 322 317 313 311 312 311 309 309 309 310 313 316 318 321 322 322 322 322 322 323 324
315 315 315 315 315 315 317 316 317 317 317 317 318 318 316 328 342 340 334 328 331 338 341 346 346 346 348 349 348 349 349 348 348 348 347 348 347 347 346 346 344 344 343 343 342 340 340 340 340 339 339 338 338 337 338 335 330 327 321 314 316 325 330 328 328 331 331 329 326 328 332 332 332 332 333 331 327 324 320 313 312 312 311 310 309 310 312 314 318 320 321 321 322 323 323 323 322
315 316 315 315 317 317 317 317 317 316 317 318 319 318 316 326 338 340 333 330 336 341 344 347 347 347 348 348 348 348 348 348 348 347 348 347 346 346 345 345 344 344 344 343 342 340 340 340 339 338 338 338 338 337 336 334 331 331 327 324 327 330 330 329 331 331 332 332 330 331 332 330 331 332 328 325 322 323 322 316 313 313 312 312 310 309 310 312 316 320 321 320 321 322 326 330 327
315 316 316 316 318 318 317 316 316 316 317 318 318 318 317 321 328 333 335 335 339 339 342 347 348 347 347 348 348 348 347 347 347 347 347 346 345 345 345 344 344 343 343 343 342 341 339 339 339 338 337 338 337 337 335 335 334 334 332 330 330 332 331 331 332 331 333 333 331 332 329 325 327 326 318 316 320 324 325 320 317 316 315 314 312 311 310 310 312 316 318 320 322 322 328 333 332
315 317 316 318 318 317 317 316 316 316 317 317 318 318 318 319 319 323 332 337 336 338 344 345 347 347 347 347 347 347 347 347 347 346 345 345 345 344 344 344 343 343 342 342 341 340 339 338 338 338 337 337 336 336 335 334 334 334 334 332 331 332 332 332 332 331 332 331 331 331 323 317 321 321 316 318 322 324 326 323 323 322 321 319 316 315 313 311 311 313 314 317 322 326 330 331 330
316 317 317 318 319 317 317 317 316 317 317 317 318 318 318 319 319 320 330 335 334 339 344 345 347 348 347 347 346 347 347 346 345 344 344 343 343 343 343 342 342 342 342 341 340 339 338 338 338 338 337 336 334 334 334 333 332 333 333 332 332 331 331 332 331 331 331 330 330 326 319 322 325 324 323 324 322 321 323 321 321 321 319 320 318 318 318 315 315 316 315 312 317 323 327 327 324
316 317 317 318 318 317 318 318 317 317 317 318 318 318 318 318 319 322 329 336 339 342 345 346 347 347 347 347 346 346 346 344 343 343 342 343 343 342 342 342 341 341 341 340 339 339 338 338 338 337 336 334 333 332 333 332 332 333 332 331 332 331 331 331 331 330 328 324 323 322 324 330 329 328 330 330 328 327 327 326 325 323 321 322 320 318 319 318 318 320 318 313 311 316 323 327 327
315 316 317 318 318 318 318 318 318 317 317 318 318 318 318 318 319 327 331 339 346 345 345 346 347 347 347 346 346 346 345 344 343 343 342 343 342 342 341 342 342 341 341 340 339 338 338 338 337 335 333 333 333 332 332 332 332 333 331 331 330 330 331 331 331 329 325 321 323 328 331 331 331 334 334 334 333 333 333 332 333 331 331 331 327 322 321 319 319 321 321 319 316 316 322 326 330
315 314 317 317 317 317 317 317 318 317 318 317 318 318 318 322 326 332 335 341 347 346 346 346 346 347 346 346 346 345 344 344 343 343 343 343 343 342 341 341 341 340 340 339 339 338 338 337 335 333 331 331 333 332 332 332 331 331 331 330 329 330 331 331 331 330 330 329 330 332 332 332 334 335 335 335 335 334 334 333 334 335 336 335 333 332 330 326 323 322 323 326 327 325 324 323 326
315 314 317 318 316 317 316 317 317 316 318 317 318 318 320 330 334 335 339 344 346 346 346 346 346 347 346 346 346 345 344 344 344 344 344 344 343 343 342 341 340 339 339 339 339 338 337 336 335 333 331 329 331 331 331 330 331 331 331 331 331 332 334 333 333 333 334 334 332 333 332 333 335 334 335 335 334 334 334 333 333 335 337 337 336 337 336 334 331 328 325 328 332 331 330 328 326
316 315 316 317 316 317 317 318 317 317 318 317 317 317 322 336 338 337 344 346 346 346 346 346 346 346 346 346 346 346 345 344 344 344 344 344 343 343 342 341 339 339 339 338 338 338 335 334 333 330 327 325 328 330 329 330 332 332 333 334 334 335 335 335 335 335 336 335 335 335 334 334 334 334 333 333 333 334 333 333 332 333 335 336 336 336 335 334 334 333 331 329 329 329 331 332 330
316 316 315 316 315 317 317 318 318 317 317 317 318 317 321 334 335 339 347 346 346 346 346 347 346 346 346 346 346 345 345 344 344 345 344 343 343 343 342 340 339 339 339 338 338 336 332 330 329 325 323 324 329 331 330 332 333 333 334 335 336 336 336 337 336 336 336 336 335 335 335 334 333 333 332 331 331 331 331 332 331 332 333 333 334 334 334 333 333 334 334 332 329 327 327 330 330
315 315 315 315 315 315 316 317 317 317 317 317 318 316 320 329 333 341 348 346 346 346 346 346 346 346 346 346 346 345 345 345 345 344 344 344 343 343 342 341 339 339 339 337 337 335 329 325 325 325 325 328 332 332 332 333 333 333 335 336 336 337 336 336 336 336 336 335 335 334 334 333 332 332 331 330 330 330 332 331 331 331 332 333 332 332 332 333 332 332 334 334 334 332 330 329 329
314 314 314 315 314 314 315 316 317 317 317 318 318 316 318 326 334 344 347 346 346 345 346 346 345 346 346 345 345 345 345 345 344 344 343 343 343 342 341 340 339 339 338 338 337 333 324 323 328 332 331 331 332 332 333 334 335 336 336 336 336 336 336 336 336 335 335 334 334 333 333 332 331 331 330 330 330 331 331 331 331 331 331 332 332 332 331 331 331 331 332 334 336 337 335 334 332
313 313 313 314 313 313 316 317 316 317 317 318 318 315 319 329 339 346 346 346 347 345 346 346 346 346 345 345 345 345 345 344 344 343 344 343 341 340 340 339 339 339 338 338 336 328 324 329 335 336 334 334 333 333 336 337 337 337 336 336 336 336 336 335 335 334 334 334 334 333 332 331 330 330 330 331 331 331 332 332 332 332 332 332 332 333 332 332 333 332 332 333 334 335 335 336 335
313 312 312 312 312 314 316 317 317 317 316 318 318 316 323 335 341 346 345 345 348 346 346 345 345 345 345 344 343 344 343 343 343 343 343 341 338 339 339 338 338 339 337 336 333 329 332 336 336 336 335 335 335 336 337 337 337 337 336 336 336 336 335 334 334 334 334 334 334 333 333 331 331 331 332 333 333 334 334 334 334 332 331 331 332 332 332 332 332 332 333 332 333 333 334 334 334
313 312 312 312 311 314 315 316 317 317 316 318 318 317 324 334 340 346 345 345 348 345 345 346 345 344 344 343 343 342 342 342 342 341 340 337 336 338 338 338 340 340 336 332 332 333 337 337 336 337 336 336 337 337 337 337 337 337 337 336 335 334 335 334 334 334 334 334 334 335 334 333 333 334 334 334 334 334 334 333 333 332 331 331 331 332 332 332 331 331 331 332 332 333 333 333 333
312 312 312 313 312 313 314 315 317 317 317 317 318 318 323 330 338 346 344 345 347 345 345 344 338 335 336 337 338 337 338 340 340 340 338 335 336 338 339 340 341 341 338 333 334 336 338 338 337 337 336 336 337 336 337 338 337 337 337 336 334 334 334 334 333 333 334 334 335 335 335 335 335 335 335 334 334 334 333 333 333 333 333 333 332 333 333 333 332 331 331 332 332 331 332 332 333
313 312 312 314 313 313 313 315 315 316 317 317 318 318 322 329 336 342 344 344 343 340 338 336 331 331 332 333 334 334 336 339 340 340 339 338 340 341 341 341 341 342 340 337 337 338 339 339 338 337 337 337 336 336 337 338 337 336 336 335 334 335 335 335 335 335 335 335 336 336 336 336 335 334 334 334 333 333 333 333 334 334 334 333 333 333 333 333 332 332 332 332 332 332 332 332 332
314 313 313 314 312 313 315 316 315 316 316 317 318 317 321 328 333 339 342 341 338 332 330 329 329 331 333 333 334 336 338 340 341 340 340 341 342 342 342 342 341 341 340 339 339 339 339 339 339 338 338 337 337 337 337 337 337 336 336 335 336 336 336 336 336 336 336 336 336 336 336 335 335 334 334 333 333 333 333 334 333 333 334 334 332 332 333 333 333 332 332 332 332 332 332 332 332
315 313 313 313 312 313 314 316 315 316 316 317 318 318 322 326 330 336 341 337 333 332 331 329 329 330 334 335 334 336 339 340 340 338 339 341 342 342 342 341 341 340 339 340 340 339 340 339 339 338 338 338 337 337 337 337 337 336 336 337 337 337 336 336 336 336 336 337 336 336 336 335 334 334 333 333 334 333 333 334 333 333 333 333 332 331 331 331 332 332 332 332 332 331 331 332 332
314 314 312 313 313 313 315 315 314 316 316 317 318 317 320 323 327 335 339 335 332 334 335 332 331 330 335 335 333 336 338 338 339 337 338 340 339 340 340 341 341 340 339 340 339 339 340 339 339 338 338 337 337 338 337 337 336 336 337 337 336 336 337 337 336 337 336 336 336 336 335 334 334 334 334 333 333 334 334 334 333 333 333 333 331 331 330 331 330 330 331 331 331 330 331 333 333
314 313 312 312 313 314 315 315 314 315 315 316 318 317 320 326 331 336 338 335 334 336 337 335 332 332 334 335 334 336 337 337 338 337 338 338 337 338 339 339 340 339 339 340 339 340 340 338 338 338 338 338 338 337 337 337 336 336 336 336 335 335 336 336 336 335 335 335 334 334 334 333 333 333 334 333 333 334 334 334 333 332 332 331 330 330 330 330 330 329 330 330 331 331 331 333 333
313 313 312 312 313 314 313 314 315 315 315 317 317 316 324 335 337 338 338 337 337 337 338 337 334 334 334 335 336 336 336 336 336 336 338 338 338 339 338 337 338 338 338 339 339 339 338 338 338 337 338 338 338 337 337 337 336 335 336 336 335 334 334 335 334 334 333 333 333 333 332 333 333 333 333 333 333 333 333 332 330 328 328 329 329 330 330 330 330 330 329 329 329 330 331 332 333
313 313 313 313 314 313 313 314 315 315 315 317 317 315 323 333 336 337 338 337 339 340 340 339 337 336 334 335 337 336 336 336 335 335 338 339 339 338 337 336 337 337 337 338 338 338 337 337 337 337 337 337 337 337 337 336 335 334 335 335 334 334 334 334 334 333 332 332 332 332 331 332 332 331 331 331 332 332 331 329 326 326 327 328 328 329 330 330 331 330 330 330 330 329 329 330 332
313 313 314 314 315 314 314 315 315 314 313 316 316 315 319 326 332 337 337 336 337 339 339 339 338 337 335 336 337 337 337 335 334 336 338 339 338 336 335 337 338 337 337 338 337 337 337 337 337 337 337 336 336 336 335 335 335 335 335 335 334 334 334 334 333 332 332 332 332 331 331 330 329 329 328 328 329 329 328 325 325 327 328 328 328 329 330 330 330 331 331 330 330 329 328 329 331
312 313 313 314 315 315 314 314 313 313 313 316 317 315 317 322 328 336 337 335 335 336 336 337 339 338 337 337 338 338 337 335 335 337 339 339 338 336 336 337 338 337 337 337 336 336 336 336 337 337 336 336 335 335 335 335 336 335 335 334 334 334 333 332 331 330 330 331 331 330 330 328 327 327 325 325 325 325 324 323 324 326 328 328 328 329 329 329 330 330 330 330 330 329 329 330 330
312 313 313 313 314 314 314 314 313 314 315 316 317 315 316 319 325 334 337 335 335 335 335 336 338 339 338 338 338 338 337 335 334 337 338 339 337 336 336 336 336 336 336 336 336 336 336 336 336 335 335 335 334 334 335 335 335 334 333 333 332 332 332 331 330 329 329 330 330 330 329 327 325 324 322 322 322 321 321 323 324 325 327 326 326 327 327 327 328 329 329 330 330 330 330 330 330
313 313 313 313 313 314 314 313 313 315 315 314 314 315 314 315 324 334 335 334 335 336 334 335 337 338 338 339 339 338 337 336 335 337 339 338 337 336 336 336 335 335 336 336 336 336 335 335 335 334 334 333 333 333 333 333 332 332 332 332 331 331 331 330 330 330 330 330 330 328 327 325 323 322 322 321 321 321 321 322 323 324 324 324 324 325 325 326 326 327 327 328 329 330 330 330 330
313 313 313 313 314 313 314 314 313 314 314 313 314 315 312 313 323 333 333 331 333 335 334 334 337 338 338 339 338 337 338 338 337 338 338 337 337 335 334 335 335 334 334 335 334 335 335 334 334 333 333 332 332 332 331 331 331 331 331 330 330 330 330 329 330 329 329 329 328 327 325 323 322 322 322 321 321 321 321 321 321 321 321 321 321 322 322 322 322 324 326 326 327 328 329 329 330
312 312 313 313 313 313 314 314 313 314 314 313 313 314 313 312 320 328 330 330 330 333 334 334 336 337 337 338 338 337 338 338 338 337 336 335 336 336 334 335 334 333 333 334 334 334 333 333 332 332 332 331 331 330 330 330 330 330 329 329 329 329 329 329 329 328 328 327 326 324 323 323 322 322 321 321 320 320 320 319 319 319 319 320 320 319 320 320 320 320 322 323 325 326 327 328 329
312 312 312 312 313 314 314 314 314 314 313 313 313 315 314 311 317 325 327 329 329 330 334 334 335 337 337 337 338 338 337 338 338 336 335 335 335 334 334 335 334 333 333 333 333 333 332 332 331 331 331 330 330 330 329 329 329 328 328 327 327 327 327 327 327 326 325 324 323 322 322 322 321 321 320 319 319 318 318 318 317 317 317 317 317 317 318 318 318 318 319 320 321 322 323 324 325
311 311 311 312 312 313 314 313 314 313 313 313 313 315 314 312 317 324 327 328 328 330 333 334 336 337 337 337 338 339 338 338 337 335 333 333 333 332 333 334 334 333 333 333 332 332 331 331 330 330 330 329 329 329 328 328 328 327 327 326 325 325 325 325 324 323 322 321 321 320 320 320 319 319 318 317 316 316 315 315 315 315 315 315 315 315 315 316 316 316 317 318 317 318 319 319 321
310 310 311 311 312 314 315 314 313 313 313 314 314 315 314 313 316 324 326 326 327 329 331 334 337 337 337 337 339 339 338 336 336 334 331 331 332 332 333 333 333 332 331 331 331 331 331 330 329 329 329 328 328 327 327 326 326 325 325 324 323 322 322 321 321 320 320 319 319 318 317 317 317 316 315 315 314 314 314 314 314 314 314 314 314 315 314 315 315 315 315 316 316 316 316 316 317
310 311 311 311 312 314 314 313 313 313 314 314 315 314 313 313 320 327 328 327 328 328 331 335 337 336 336 338 339 337 334 334 334 333 330 331 332 333 333 333 332 331 330 330 330 330 329 328 327 328 327 327 326 325 324 324 323 322 321 321 320 320 319 319 318 318 317 317 316 315 315 315 315 315 314 314 313 314 314 314 314 313 314 313 313 314 313 313 314 313 314 314 314 315 315 316 316
311 312 311 311 312 314 314 315 315 314 314 316 315 314 317 320 325 331 333 332 330 329 333 336 335 336 337 338 337 334 332 333 333 331 330 330 331 332 332 332 332 330 329 329 329 328 328 327 326 325 325 324 323 322 321 321 320 319 319 319 318 318 318 317 317 316 315 315 314 314 314 314 314 314 313 313 313 313 313 313 313 312 312 312 312 312 312 312 312 312 312 312 313 313 314 314 315
311 311 310 311 313 314 313 315 316 314 315 316 313 315 322 325 327 330 332 332 331 330 334 335 335 336 337 337 334 332 332 333 332 331 330 330 331 330 331 332 331 330 329 329 328 327 326 325 324 323 322 322 320 320 319 318 318 317 317 317 317 316 316 315 314 314 314 314 313 313 313 313 313 313 312 312 312 312 312 312 312 311 311 311 311 311 311 311 311 311 311 311 312 312 312 313 314
311 310 311 312 313 314 314 314 314 313 314 316 314 315 319 320 324 331 331 330 331 331 333 334 335 336 336 335 333 331 332 331 330 331 331 330 330 329 330 331 330 329 328 326 326 324 323 323 322 321 320 319 318 318 318 317 317 316 316 315 315 315 314 314 314 313 313 313 313 312 312 312 312 312 311 311 311 311 311 311 310 310 310 309 309 309 309 309 309 310 310 310 310 311 311 312 312
311 311 313 313 312 313 313 313 314 314 314 315 314 315 316 317 324 330 329 330 331 332 332 332 334 336 336 334 332 331 331 330 330 330 330 329 328 327 329 330 329 327 324 324 324 323 322 321 320 319 318 318 317 317 317 316 316 315 314 314 314 313 313 313 313 312 312 312 312 311 311 311 311 310 310 310 310 310 310 309 309 308 308 308 308 308 308 308 308 308 309 309 309 309 310 311 311
312 312 312 312 312 312 312 313 314 314 313 314 315 316 316 318 324 328 328 330 331 332 332 332 332 335 335 333 331 330 329 328 329 330 329 328 326 327 329 329 328 325 322 323 323 322 320 319 318 318 317 316 316 316 316 315 314 314 314 313 313 312 312 312 312 311 311 311 311 310 310 310 310 309 309 309 309 308 308 307 307 306 306 306 306 306 306 306 306 307 307 307 308 308 308 309 310
311 311 310 311 312 312 312 312 312 313 313 313 315 318 318 319 324 326 327 330 331 332 333 332 333 334 334 332 330 329 328 328 329 329 328 327 326 327 327 327 324 322 322 323 322 321 319 318 318 317 317 316 315 315 314 314 313 313 313 312 312 312 312 311 311 311 310 310 310 309 309 309 308 308 308 307 307 307 306 305 305 305 304 304 304 304 304 305 305 305 306 306 307 307 308 308 310
311 311 311 311 312 312 312 312 312 312 313 313 314 315 318 322 324 323 325 330 332 333 333 333 333 334 333 331 328 328 327 327 328 327 326 326 326 326 325 324 322 321 322 322 320 319 318 318 317 316 316 316 314 313 313 313 312 312 312 311 311 311 311 311 310 310 309 309 308 308 308 307 307 307 306 305 305 304 304 304 303 303 303 303 303 303 303 304 304 304 305 305 306 306 307 308 309
Wind_Speed
11 10 8 7 5 5 5 5 7 5 4 8 8 8 7 3 3 8 7 5 5 1 2 4 2 4 3 3 3 1 11 7 4 2 2 6 12 17 18 20 25 23 22 26 24 22 19 15 13 10 10 11 11 11 12 13 14 14 14 15 15 15 15 15 15 14 14 13 12 13 14 14 14 13 12 12 11 11 11 10 10 9 9 8 8 8 8 8 8 7 7 7 7 6 6 6 7
10 9 7 5 3 5 5 3 7 6 7 9 8 9 9 4 4 10 8 5 4 3 2 3 3 5 3 5 3 3 7 11 10 9 9 11 16 17 17 21 24 23 22 26 25 22 20 16 13 10 10 11 11 12 12 12 13 14 14 15 15 15 15 14 14 14 13 12 12 13 14 14 13 12 12 11 11 11 10 10 9 9 8 7 6 7 8 7 7 6 5 5 5 5 5 6 6
9 7 4 4 4 5 5 4 7 8 8 9 8 8 9 8 8 7 3 3 2 2 1 3 4 5 4 5 4 3 4 9 11 12 12 14 17 18 18 21 24 22 23 26 25 22 20 16 13 10 10 11 11 12 12 12 12 14 14 15 15 15 14 14 13 12 12 12 13 14 14 13 12 11 11 11 10 10 10 10 9 8 8 7 6 5 6 6 5 5 5 4 5 5 7 7 6
8 6 5 5 6 6 6 6 7 8 9 9 8 9 9 8 5 2 2 0 2 1 3 6 5 3 4 4 1 1 6 7 7 9 12 14 15 20 20 22 23 22 25 27 24 22 20 16 14 10 10 11 11 11 12 12 12 13 14 15 15 15 14 13 12 12 12 12 13 14 13 12 11 11 10 10 10 9 9 9 8 7 6 5 3 2 4 4 4 4 4 5 6 7 7 6 7
5 5 6 7 7 4 5 6 6 8 10 9 9 8 6 5 1 4 3 3 3 3 3 6 4 4 2 3 3 0 6 7 6 8 13 14 16 22 21 22 22 21 25 26 22 22 20 17 14 11 10 11 11 11 11 12 12 13 14 14 14 14 13 12 11 12 12 13 14 14 12 11 11 10 10 9 9 8 7 6 6 5 4 2 1 1 1 2 3 4 6 8 9 9 8 7 8
4 4 6 7 6 3 5 7 8 9 11 11 11 8 3 3 2 3 3 3 3 4 4 7 4 5 5 4 5 3 5 5 8 10 12 16 19 22 22 21 22 21 24 24 21 21 20 17 15 11 10 10 11 10 11 11 12 12 13 13 13 12 12 11 11 11 12 13 14 13 11 11 10 9 9 8 7 6 5 5 4 4 3 2 1 1 2 2 3 6 9 11 11 11 10 9 9
6 6 7 8 5 4 8 9 10 10 11 12 12 9 1 4 4 3 3 3 4 5 5 7 5 5 5 6 5 5 3 5 8 11 13 19 22 22 22 21 22 22 24 24 19 19 20 18 15 12 11 10 11 10 10 11 11 11 12 12 13 12 11 11 11 12 12 13 13 12 10 9 9 8 7 6 5 5 5 5 4 3 3 2 2 3 4 3 5 9 11 13 13 12 12 10 10
8 8 7 7 6 6 9 10 11 10 7 6 8 9 3 1 1 2 4 5 5 4 5 6 8 7 4 5 3 3 4 6 9 13 16 21 22 21 22 21 22 22 24 22 17 19 21 18 16 13 11 11 10 10 10 10 11 11 11 12 13 12 12 11 12 12 13 13 12 11 10 9 7 6 6 5 5 5 5 5 4 3 3 4 5 5 5 5 7 10 12 13 13 13 11 11 11
9 8 6 7 7 6 9 10 11 11 8 6 7 9 6 4 4 7 8 8 6 4 7 7 9 8 6 7 4 5 6 9 13 16 18 21 22 22 21 21 21 22 22 20 16 21 22 18 16 14 12 11 10 9 9 10 11 11 11 12 12 12 12 12 12 12 13 13 12 11 10 8 6 6 6 5 5 6 6 5 5 4 4 5 6 6 7 7 9 12 12 13 13 12 11 11 11
10 10 6 6 8 8 9 9 9 9 10 8 8 8 7 7 9 10 11 12 10 8 8 7 8 7 8 9 7 7 8 12 17 18 19 20 21 21 21 20 20 22 22 18 17 22 22 19 16 14 13 11 10 9 9 10 10 11 11 11 12 11 11 12 12 12 13 12 11 11 9 7 6 5 5 5 6 6 6 5 5 5 5 5 6 6 7 9 11 12 12 12 12 11 10 11 11
10 10 7 6 8 9 9 9 9 8 7 7 7 8 7 8 10 11 12 13 12 10 9 9 9 10 9 8 7 8 11 15 19 20 20 20 20 20 20 20 19 21 21 17 17 21 22 19 17 15 13 12 10 9 8 9 10 10 11 11 12 12 11 12 12 12 12 11 10 9 7 6 5 5 5 5 6 6 6 5 5 5 5 5 5 6 8 9 11 12 12 11 11 10 10 10 11
9 8 7 7 8 9 8 8 8 6 6 7 7 6 4 4 7 9 11 12 13 12 13 12 10 13 9 8 8 10 15 17 18 19 21 21 19 19 20 19 19 20 18 17 17 20 21 19 18 16 14 12 10 9 8 8 9 10 11 11 12 12 11 11 12 12 11 11 9 8 7 6 5 5 6 6 6 6 6 5 5 5 5 5 5 6 8 10 10 11 11 11 10 9 9 9 10
10 7 7 8 7 8 8 7 5 4 6 6 5 7 4 3 6 9 10 11 14 14 15 15 12 13 9 10 10 12 17 18 18 19 21 21 19 19 19 18 19 19 17 17 17 18 19 18 17 16 14 12 11 9 9 8 9 10 10 11 11 11 12 11 12 12 11 10 9 8 7 6 5 6 6 6 6 5 5 5 5 5 5 5 5 6 7 9 9 10 11 10 9 9 8 9 8
12 8 7 7 7 7 7 7 5 5 5 4 6 7 3 5 6 9 10 11 14 14 14 16 15 13 9 11 10 14 18 19 20 21 21 21 20 20 18 18 18 18 17 16 16 16 16 15 15 16 15 14 13 11 10 9 9 9 10 10 11 12 13 11 11 12 11 10 10 8 7 6 6 6 6 7 6 5 5 5 5 5 5 5 5 6 6 7 8 8 9 9 9 8 8 7 7
11 9 7 6 6 7 7 7 5 6 4 9 8 2 4 5 6 9 11 12 12 13 10 15 17 10 11 13 14 19 21 21 22 21 21 21 21 21 19 18 18 19 17 15 16 16 15 14 14 14 14 13 12 11 11 10 9 9 9 10 11 13 13 12 11 11 10 10 9 8 7 4 4 5 6 6 6 5 5 5 4 4 4 5 6 6 6 6 6 6 7 7 7 7 7 6 6
11 8 6 7 8 7 7 7 6 6 4 10 6 2 4 3 3 7 9 10 8 12 10 15 17 8 9 16 20 25 24 24 24 21 21 21 20 19 19 18 18 18 17 15 16 16 16 15 14 13 12 11 11 10 10 10 9 9 9 9 11 14 14 12 12 11 10 10 9 8 6 4 2 3 4 4 5 5 4 4 3 3 3 4 5 7 7 7 6 5 4 5 5 5 5 5 4
10 8 7 6 8 8 6 8 6 3 6 10 4 3 5 0 3 4 5 9 8 13 13 12 14 7 5 14 24 29 27 27 26 22 21 20 19 18 18 18 18 18 16 15 15 16 17 15 14 14 13 12 11 10 9 9 9 9 9 9 12 14 13 12 12 10 9 8 8 8 7 5 2 4 4 2 4 5 4 3 3 3 3 3 4 6 7 7 6 5 4 3 2 2 2 2 2
10 7 8 7 8 7 4 7 4 1 6 7 3 3 5 2 2 2 5 11 11 13 13 10 10 6 9 18 25 29 29 28 25 23 21 20 19 18 17 17 17 17 15 15 14 16 17 15 15 14 13 13 12 10 8 8 9 9 9 9 11 13 13 11 10 9 7 6 7 7 5 5 3 4 4 3 4 5 3 3 3 3 2 3 3 5 6 7 7 7 6 5 4 3 1 1 1
11 7 7 8 6 2 2 4 3 2 2 2 1 2 5 4 1 1 6 12 14 14 13 12 13 13 17 22 24 28 30 26 24 23 21 20 20 19 18 17 18 16 15 15 15 17 17 15 15 14 13 13 11 9 7 7 7 8 8 8 10 10 11 10 8 8 7 6 5 6 4 4 3 3 4 3 4 5 4 4 4 3 3 2 3 4 5 7 8 8 8 7 7 5 3 2 3
13 9 7 8 5 1 3 4 3 3 2 3 2 2 5 3 1 3 6 11 14 14 14 16 17 20 23 24 24 28 28 25 23 21 21 21 20 21 19 17 17 16 15 14 15 17 17 16 14 13 14 11 9 8 7 7 7 7 7 7 8 9 9 8 8 8 8 7 6 5 4 4 3 3 3 4 4 4 4 5 4 3 2 2 3 3 4 6 8 9 10 9 9 7 4 4 4
11 10 8 4 2 3 5 6 5 4 3 5 4 5 5 3 4 6 7 10 11 14 16 17 19 25 27 26 26 27 26 25 23 21 21 21 21 21 19 16 17 16 15 13 15 17 16 15 13 13 13 10 8 7 7 7 7 8 8 8 8 8 9 8 8 8 8 7 5 4 4 4 4 4 4 4 3 3 4 4 4 3 3 3 3 2 4 5 6 8 10 11 11 9 8 8 7
8 11 13 5 2 5 5 6 5 3 4 5 6 6 5 5 8 9 10 11 8 12 16 14 18 25 26 27 28 27 26 26 24 23 23 22 22 21 19 19 19 17 14 13 15 16 16 16 14 12 10 9 8 8 7 8 8 8 8 9 8 8 8 8 7 7 6 5 5 5 6 5 6 5 4 4 3 3 3 2 2 2 2 3 3 4 5 5 5 7 9 11 12 13 12 12 11
9 10 14 9 5 4 4 5 5 3 5 6 6 7 7 9 10 8 12 12 4 8 14 13 18 23 23 26 27 27 27 26 25 24 24 23 22 20 20 20 18 16 14 14 15 16 16 15 13 11 9 8 8 9 8 7 8 8 8 9 9 8 8 8 7 6 6 7 7 8 8 5 4 3 2 2 1 2 1 1 1 2 2 3 4 5 6 6 7 7 9 11 12 14 14 14 13
12 9 11 12 10 7 5 4 4 5 7 8 8 9 9 10 8 5 12 11 2 7 13 13 18 22 23 25 26 26 26 25 24 23 22 22 21 20 19 17 16 15 14 15 15 15 15 14 12 10 9 9 8 8 8 7 8 8 8 8 9 9 8 7 7 7 8 9 9 9 8 5 3 3 1 1 2 2 2 3 3 3 3 4 5 5 6 7 8 9 10 10 11 11 13 14 12
15 11 7 9 10 10 10 8 7 9 8 9 9 10 10 9 8 6 10 10 5 9 15 16 20 23 24 25 26 25 25 24 23 22 20 20 19 19 18 16 16 16 15 15 14 13 13 13 11 10 10 9 8 8 9 8 8 9 8 8 9 10 9 8 8 8 8 8 7 7 7 6 4 3 3 3 3 4 4 4 4 3 3 5 5 5 5 6 7 9 10 9 9 9 11 13 13
14 16 10 7 9 8 10 10 10 11 9 8 8 10 9 5 6 7 9 9 7 10 16 20 22 24 25 26 26 25 25 24 22 21 19 18 18 18 17 17 17 16 15 15 13 12 12 12 11 10 10 10 8 9 9 9 9 10 9 9 9 9 8 7 7 6 6 6 5 5 5 5 4 3 2 2 2 3 3 3 3 2 3 4 4 4 5 6 6 8 9 8 8 9 8 11 13
9 17 15 10 9 8 8 9 10 10 10 10 10 10 7 4 6 6 9 9 9 13 16 18 22 25 26 27 27 24 24 23 22 20 17 16 17 16 16 16 17 17 15 15 12 11 12 11 11 10 10 11 10 10 10 10 11 11 11 10 8 7 7 6 5 4 5 4 3 3 3 3 2 2 2 2 2 2 2 3 3 3 3 4 4 5 7 7 8 8 8 9 10 10 9 10 12
5 11 14 12 12 11 11 10 10 9 8 10 10 10 7 6 7 4 10 10 10 14 16 18 21 24 25 27 27 25 24 23 20 19 16 16 16 15 15 15 16 16 14 14 12 11 13 12 12 12 12 13 11 11 11 11 12 12 12 11 9 8 7 6 5 5 4 4 3 3 2 2 2 1 1 1 1 1 2 2 2 2 3 5 5 6 8 8 9 9 9 10 11 12 13 13 13
6 7 9 11 11 12 14 14 13 11 8 8 8 8 8 10 7 4 10 12 12 15 17 19 20 23 25 26 26 25 24 21 18 17 16 15 13 13 13 13 14 13 12 12 12 13 14 15 14 14 13 13 12 12 12 12 12 12 11 10 9 7 7 6 5 4 4 3 3 2 2 2 1 1 0 1 1 1 2 2 3 3 3 4 6 7 8 8 9 9 9 10 10 11 13 14 15
9 9 7 8 8 10 15 15 14 13 9 8 8 7 9 11 7 8 10 12 14 15 17 20 22 24 26 26 25 24 21 20 17 16 15 14 11 11 12 12 14 12 11 11 12 14 16 17 16 15 14 14 13 14 14 13 12 11 10 9 8 6 6 5 5 4 4 3 3 3 3 3 2 2 1 1 2 3 3 4 4 4 4 5 6 7 8 8 9 10 10 10 9 10 12 14 16
9 10 8 7 7 7 12 14 14 12 10 11 10 8 8 10 9 10 12 15 17 18 18 21 23 24 25 25 24 21 18 18 18 17 15 15 13 11 11 12 13 13 12 12 13 16 18 17 15 15 16 15 15 15 14 13 12 10 9 8 7 5 5 5 5 4 3 3 3 2 3 3 2 1 0 2 3 4 4 5 5 5 6 6 6 7 8 8 8 10 11 11 11 11 11 13 15
9 9 8 8 7 5 10 12 15 14 11 13 13 7 6 9 9 11 16 18 17 17 19 22 23 25 25 25 22 19 18 17 18 17 13 15 16 14 13 13 13 13 13 13 14 16 16 16 15 17 18 17 17 15 13 12 10 9 8 7 7 6 5 4 4 4 3 3 3 2 1 1 1 1 2 3 3 4 4 4 5 6 6 6 6 6 7 8 8 10 11 12 12 13 14 14 14
9 10 8 10 10 6 8 11 15 16 11 13 14 9 4 7 10 13 16 15 14 15 18 21 19 18 22 24 21 18 18 17 17 17 15 17 18 18 16 15 14 13 14 15 15 16 16 16 16 17 17 17 15 14 13 11 9 8 7 6 6 6 5 4 4 4 3 2 2 2 1 2 2 2 2 2 3 3 4 4 5 6 6 6 7 7 8 8 9 10 10 11 12 13 14 15 15
8 10 8 8 11 9 6 9 13 15 11 12 15 11 1 7 11 14 14 12 12 12 13 15 17 18 16 15 15 15 13 12 14 16 19 22 21 21 20 18 16 15 15 15 16 17 17 17 17 17 17 16 15 13 12 10 9 8 6 5 5 5 5 3 3 3 2 2 2 1 2 3 2 3 2 3 3 3 4 4 5 6 7 7 7 8 8 9 10 11 11 11 11 12 13 14 14
11 11 8 7 10 11 8 7 11 14 12 12 15 12 3 7 11 13 13 11 8 7 11 12 20 22 20 17 15 14 11 9 11 13 16 21 22 20 19 19 17 17 18 19 19 19 18 17 17 17 16 17 15 13 11 9 8 7 6 6 5 4 4 3 2 2 2 2 1 1 2 3 3 3 3 3 3 3 4 5 6 7 8 9 9 9 9 10 11 11 11 11 11 12 12 13 14
13 13 11 9 9 11 9 6 9 14 13 12 14 13 8 9 10 11 12 11 12 21 25 21 17 16 19 22 20 14 9 7 9 11 13 15 17 17 16 17 17 17 20 21 21 20 19 18 18 17 16 16 15 12 11 9 8 8 6 6 6 5 4 3 3 2 1 1 1 1 2 3 4 3 3 3 3 4 4 5 7 8 9 9 10 10 10 10 11 11 11 11 11 11 12 13 14
11 13 12 11 8 10 11 8 8 10 12 11 14 13 10 10 10 10 13 16 16 16 24 23 16 14 16 21 20 12 7 6 7 11 12 11 12 14 15 15 16 17 17 19 20 18 17 17 17 16 15 15 14 12 11 10 9 8 7 7 6 5 4 3 3 2 2 1 0 1 1 2 3 3 2 3 3 4 5 6 8 9 9 10 11 11 11 11 11 12 12 12 12 12 12 11 13
10 10 10 10 9 8 11 10 8 8 10 10 13 12 11 11 9 10 12 15 12 10 18 23 24 23 20 24 24 17 12 9 9 11 13 12 11 13 15 16 17 17 17 17 17 16 16 16 16 16 15 14 13 12 11 10 9 8 8 7 6 5 4 3 3 3 2 2 1 1 0 0 1 2 2 3 3 4 5 7 8 9 9 10 11 11 11 12 12 13 12 12 12 13 13 11 11
9 9 9 9 9 7 9 9 8 8 8 8 13 12 9 8 5 8 11 13 11 9 12 21 29 24 20 27 27 25 23 17 14 15 17 15 12 13 16 17 15 15 18 17 17 16 15 16 16 16 15 13 12 12 11 9 9 8 7 6 5 6 6 4 5 4 2 2 2 2 2 2 2 2 3 4 4 4 5 6 7 8 9 10 11 11 11 12 12 13 12 13 13 12 11 10 10
7 8 9 8 11 9 6 9 10 8 6 5 12 12 7 8 7 7 11 13 12 9 8 16 27 25 22 25 23 24 27 24 20 19 18 16 13 13 13 11 9 12 16 16 16 16 15 16 16 15 14 13 12 12 12 10 9 9 7 6 5 5 4 3 2 2 1 1 1 2 2 2 4 5 6 7 8 7 7 7 7 8 8 9 9 9 10 11 11 13 13 14 13 13 11 10 9
9 10 10 8 12 10 3 9 12 8 5 5 11 11 6 8 8 6 8 12 11 11 10 11 18 22 20 20 18 17 21 24 24 22 20 17 15 13 12 10 9 11 13 15 17 17 16 16 15 14 13 12 11 11 11 10 9 8 7 6 4 2 2 3 1 1 1 1 0 1 2 2 4 5 6 7 8 9 8 8 9 8 6 6 7 7 8 10 10 12 13 13 12 13 13 11 10
9 10 10 7 11 10 5 10 12 8 7 9 12 10 7 11 12 9 8 10 11 11 13 12 14 18 18 18 17 17 18 22 23 22 20 20 17 14 13 12 12 14 15 16 18 18 17 15 15 13 12 12 11 9 9 8 7 6 5 4 3 3 3 3 2 1 1 0 1 2 2 3 4 5 5 6 7 8 8 8 8 7 6 6 6 6 6 8 9 10 12 12 12 13 14 12 11
7 10 9 5 8 11 8 10 11 8 6 9 12 10 6 9 11 11 10 11 12 11 12 13 14 16 18 19 18 18 18 20 21 20 20 21 19 16 14 13 14 16 16 14 16 17 15 14 14 13 11 11 10 9 8 7 6 6 5 4 3 3 3 3 4 2 1 1 2 2 4 6 7 7 6 6 7 7 7 8 8 7 7 7 7 6 5 5 6 8 9 10 12 13 12 13 12
6 11 11 6 6 9 8 8 10 7 3 6 11 11 6 7 11 14 14 13 13 12 11 12 14 16 19 20 19 19 20 21 23 22 20 21 21 18 17 17 15 13 14 15 15 15 14 13 12 11 11 10 10 10 9 7 6 5 4 4 5 5 3 1 2 0 2 2 2 2 4 7 7 7 7 6 6 7 7 7 8 8 7 8 8 7 6 6 5 7 8 8 10 11 11 12 14
5 11 12 8 6 6 6 7 8 5 2 5 12 12 8 6 10 13 14 15 14 14 13 12 15 18 19 20 20 21 21 21 23 22 19 19 21 18 17 18 15 12 14 15 15 14 13 11 10 10 9 9 9 8 6 5 4 3 2 2 4 4 2 1 1 1 2 1 2 3 4 6 6 6 6 6 6 6 6 7 7 8 8 9 9 8 7 7 7 7 8 8 9 10 10 12 13
6 11 10 7 6 5 5 7 7 5 6 10 13 14 10 7 9 12 12 14 15 14 13 13 16 19 20 21 21 22 21 18 19 19 16 18 20 18 15 15 15 15 15 14 14 13 13 12 10 8 7 6 6 3 2 1 2 2 2 2 3 2 1 0 1 1 1 1 2 2 3 4 4 4 5 5 5 6 6 7 8 9 9 9 10 10 10 10 10 8 8 8 8 9 9 10 13
8 10 10 7 7 6 5 6 5 5 8 12 13 15 13 9 9 11 11 13 15 13 12 13 16 20 22 21 21 21 21 21 20 18 16 18 21 20 19 18 16 15 14 14 15 14 11 10 7 4 4 3 3 1 1 2 2 2 3 3 3 3 2 2 2 2 1 1 2 1 2 2 3 4 5 6 6 7 7 8 9 10 10 10 11 11 11 11 11 10 9 9 8 9 9 10 12
10 10 10 8 7 5 5 6 5 7 9 12 15 14 13 11 7 10 12 15 17 15 14 15 17 21 23 22 21 21 22 23 21 18 18 20 21 21 21 18 14 13 14 14 14 12 9 6 3 1 2 2 2 1 1 4 5 6 5 3 3 4 3 3 2 2 1 0 1 2 2 2 4 5 6 7 8 8 9 10 11 11 11 11 11 11 11 11 11 11 10 9 9 9 10 12 13
11 11 11 10 8 6 8 9 8 9 7 6 11 12 11 10 6 8 13 15 18 17 16 19 22 24 25 24 21 20 22 23 21 19 20 22 24 24 21 18 17 17 16 13 11 8 6 5 3 1 2 3 2 1 3 6 8 8 6 3 4 5 4 4 3 3 2 1 2 3 4 4 5 6 7 8 9 9 10 10 11 12 12 12 12 13 12 12 12 12 10 10 11 11 12 13 14
14 13 12 11 9 8 10 10 8 10 5 3 8 9 8 8 5 9 13 15 18 20 20 21 23 25 25 24 21 21 23 24 21 20 23 27 29 27 23 22 22 20 16 12 9 7 6 6 5 3 3 3 2 3 4 6 6 6 5 4 3 4 4 4 4 3 2 3 5 5 6 6 6 7 8 9 9 9 10 10 11 12 12 13 13 13 13 13 13 13 11 12 12 12 12 13 14
13 12 12 11 9 8 8 8 8 10 8 7 8 7 7 7 4 6 8 11 16 20 18 16 18 21 19 20 22 22 24 24 21 21 26 31 31 29 28 26 23 19 15 12 10 8 7 6 5 4 3 3 1 1 1 2 4 4 4 4 4 4 4 5 4 4 4 5 6 6 7 7 7 8 8 9 10 10 10 11 12 12 12 13 13 13 13 13 13 13 13 13 13 13 13 13 13
12 11 11 11 10 7 4 1 1 4 6 7 8 5 2 2 3 4 5 7 12 17 17 15 17 18 18 21 21 20 22 24 21 23 31 34 32 31 31 27 23 19 16 13 10 8 6 5 5 4 3 2 2 3 3 2 3 3 3 4 4 5 5 6 6 6 7 7 7 7 8 8 8 9 9 10 10 11 11 11 12 13 13 13 14 13 13 13 13 13 13 14 14 14 14 14 14
9 11 12 11 11 8 4 2 3 0 4 6 8 7 4 4 4 5 7 8 12 15 16 17 20 21 21 21 20 19 22 24 20 24 32 34 31 31 30 26 23 21 17 13 10 7 6 5 4 4 5 5 4 4 4 3 3 3 3 4 5 6 7 8 8 8 9 9 9 9 9 9 9 9 9 10 10 11 11 11 12 13 14 14 14 14 14 13 14 14 14 15 15 15 15 15 15
8 10 11 9 8 7 5 5 4 5 7 5 9 11 9 8 5 7 11 12 13 14 15 17 22 23 21 19 19 20 23 22 21 25 29 28 28 29 29 26 23 21 16 11 9 8 7 7 6 6 6 6 5 4 3 3 3 3 4 7 8 10 10 10 10 10 10 10 10 9 9 9 9 9 9 10 10 10 11 12 13 14 15 15 15 15 15 14 15 15 16 16 17 17 17 16 16
9 8 10 9 7 6 7 7 6 8 9 6 9 12 10 8 7 10 14 15 15 15 16 17 21 24 23 20 21 22 23 22 23 26 25 24 24 25 26 26 24 21 14 8 8 8 8 8 8 7 7 6 4 4 3 4 4 5 8 10 11 12 12 12 11 11 11 10 10 9 9 9 10 9 9 9 10 11 12 14 14 15 15 16 16 17 17 16 17 17 18 18 17 18 17 17 17
8 9 11 9 7 8 8 7 5 7 8 7 8 10 8 8 9 13 16 17 17 17 16 17 21 26 26 23 24 25 24 24 24 25 24 24 23 23 25 26 24 20 15 12 10 9 8 8 7 7 8 6 5 3 3 4 7 9 11 12 12 13 13 12 12 11 10 10 10 10 9 10 10 10 10 11 11 12 14 15 15 16 16 17 18 18 18 18 18 18 19 19 19 19 18 18 17
9 10 12 10 8 7 7 8 7 6 7 7 7 7 6 6 9 13 17 17 17 19 18 17 21 26 25 24 26 25 24 24 25 24 24 24 23 23 25 26 24 22 19 16 13 11 10 8 7 6 6 6 5 4 4 7 10 12 13 13 13 13 13 12 11 11 10 10 10 10 10 11 11 11 12 13 13 15 15 16 16 17 18 18 19 19 19 19 19 19 19 19 20 20 19 17 15
12 9 10 11 9 8 8 10 9 8 7 5 7 7 4 6 8 11 15 16 17 21 20 16 21 26 25 24 25 25 26 25 24 24 24 24 24 26 28 27 25 24 20 17 14 12 11 10 9 7 5 4 4 4 7 9 11 12 12 12 13 13 12 11 10 11 11 11 11 11 12 12 12 13 14 14 15 16 16 17 18 19 19 20 20 20 20 20 19 20 20 21 21 20 19 17 14
Wind_Direction
272 275 280 284 292 304 278 277 281 252 251 269 268 267 265 261 281 286 278 274 285 78 33 302 258 215 214 305 223 82 24 22 11 18 103 105 141 151 156 158 155 155 158 167 172 170 171 170 163 169 169 161 153 146 147 146 142 140 137 137 135 134 132 131 131 128 126 123 118 116 115 116 116 117 116 113 112 110 108 107 106 108 110 112 113 111 106 103 100 95 96 95 95 95 94 93 79
265 268 272 278 271 276 263 245 281 270 257 266 260 261 267 249 256 277 284 298 311 29 330 272 207 196 236 314 246 210 47 47 54 78 101 124 140 148 162 159 155 156 156 165 172 170 169 166 161 170 170 161 153 145 146 147 143 139 137 138 136 134 134 133 133 131 127 124 120 117 114 115 118 119 118 115 114 114 111 110 110 110 112 114 114 111 107 101 98 94 88 83 84 87 91 88 69
257 255 253 260 236 251 255 226 260 270 263 265 263 263 266 260 269 290 323 314 342 26 237 174 182 176 224 240 220 226 89 73 80 98 115 134 142 149 160 154 154 155 154 164 171 170 167 163 160 168 172 162 153 147 145 146 144 138 139 139 138 138 137 138 136 133 129 125 121 119 118 116 117 119 120 119 117 117 115 115 113 113 112 110 113 120 122 116 111 105 91 83 87 90 88 79 63
250 235 206 231 233 231 237 230 249 262 261 263 269 270 277 283 295 12 76 54 111 155 193 178 184 147 248 236 154 82 98 92 95 111 128 145 155 152 152 149 152 154 156 164 169 170 166 161 159 166 172 162 154 150 145 144 143 140 141 141 142 142 141 142 137 132 129 124 120 121 120 116 117 118 121 124 123 121 121 122 121 122 120 117 120 138 148 134 122 110 93 92 96 94 85 76 69
237 224 194 214 241 238 236 242 249 250 255 261 268 274 304 319 357 93 122 137 164 217 194 197 197 149 208 28 20 234 100 98 116 128 138 153 159 152 151 148 151 154 157 162 167 168 166 162 157 166 171 162 157 151 149 143 141 141 143 145 144 145 145 142 136 130 127 123 122 122 121 120 122 121 124 130 131 133 133 133 138 146 154 168 201 256 160 123 112 99 93 94 93 91 87 83 78
202 211 190 207 246 258 241 240 242 244 249 255 266 275 352 23 98 116 148 154 213 227 204 210 207 168 173 72 46 62 95 116 134 141 146 153 152 151 153 149 151 153 155 161 166 166 165 162 157 167 170 162 159 155 153 144 140 142 144 146 144 145 143 139 135 129 126 124 124 124 124 127 128 127 131 135 138 145 154 164 173 180 187 195 205 34 60 85 108 104 101 97 94 95 93 88 80
186 201 189 201 229 224 239 241 243 249 247 246 257 269 357 73 90 127 189 190 195 186 210 215 196 178 146 130 102 65 111 131 137 152 155 154 149 152 154 151 152 151 158 162 161 162 164 164 159 166 170 165 162 158 155 146 141 142 144 144 144 144 141 139 135 129 128 127 127 129 128 130 132 133 137 140 145 155 169 181 187 186 165 133 101 88 92 102 110 110 106 101 100 99 94 88 82
187 205 200 213 220 202 236 242 243 251 245 233 252 265 276 78 69 255 230 218 208 184 217 207 203 210 136 149 141 76 136 136 147 154 154 154 150 153 154 153 153 154 161 160 156 161 165 165 162 166 170 168 164 161 155 150 146 144 145 144 147 147 143 142 137 134 132 130 133 135 135 136 137 139 139 136 138 144 152 156 156 147 122 109 103 101 111 121 120 116 111 105 103 98 93 90 85
191 207 206 226 233 214 234 241 241 246 240 233 245 253 259 264 267 259 247 237 231 238 236 202 210 218 141 144 126 107 138 142 146 147 151 153 152 154 154 155 155 156 158 156 158 163 166 165 164 168 171 170 165 161 153 150 150 149 149 148 152 151 146 145 142 139 137 137 137 138 144 148 149 144 136 127 124 127 131 132 130 122 111 103 102 108 119 129 127 121 114 108 103 98 94 91 89
195 211 216 224 234 231 233 238 238 238 240 247 252 250 257 257 251 247 244 243 234 239 234 198 215 209 141 137 123 124 141 143 144 145 150 151 154 155 153 156 159 158 156 156 159 163 167 166 166 171 172 174 169 161 153 149 151 153 155 153 155 153 147 146 144 144 143 143 142 145 151 154 157 145 131 124 122 124 126 125 120 114 108 101 100 111 124 130 129 124 118 111 104 100 94 91 89
198 206 222 228 226 234 234 238 235 229 231 240 250 248 257 252 245 241 236 243 238 236 219 199 209 186 147 132 128 136 142 146 149 148 150 152 154 155 154 156 162 161 159 157 158 166 169 167 168 173 176 177 171 163 157 152 150 152 155 155 156 155 150 148 148 149 149 148 151 156 157 159 160 146 134 129 128 129 129 125 121 116 108 104 106 118 129 132 130 127 122 115 109 102 95 91 87
211 194 207 229 225 234 239 246 239 231 227 231 240 218 215 229 232 233 230 234 229 226 213 205 190 171 157 133 136 139 146 152 151 154 154 153 154 157 157 156 161 161 161 159 160 169 170 170 172 175 178 175 174 170 164 158 151 152 153 155 159 158 153 151 150 153 153 153 157 159 161 167 164 153 140 134 134 133 134 132 127 122 118 115 116 128 136 136 134 130 125 119 112 104 97 91 86
221 200 201 229 235 242 242 250 242 250 245 230 218 163 152 236 232 233 233 230 222 217 207 200 181 173 158 126 141 146 152 159 156 158 156 154 156 158 159 158 159 161 165 161 160 166 166 171 175 177 178 176 177 177 173 165 156 154 153 156 161 160 156 154 155 156 155 157 157 157 162 160 155 150 140 138 139 140 139 135 132 126 126 129 129 138 143 143 139 133 130 124 117 109 102 95 88
219 214 219 232 236 246 243 247 234 243 240 159 129 139 187 262 251 244 234 227 217 209 200 191 183 180 152 125 150 162 160 165 162 161 159 157 159 159 162 163 160 162 166 162 160 162 162 168 176 177 178 181 183 180 178 170 160 155 154 157 161 159 155 156 163 160 158 163 162 160 160 142 131 130 131 137 140 146 145 137 138 133 131 137 142 149 155 155 148 142 137 133 126 117 110 101 91
215 214 230 240 235 236 229 237 236 242 213 128 120 114 263 257 251 244 228 225 208 194 191 180 185 188 171 164 169 171 166 167 165 162 161 158 158 160 162 163 162 164 164 162 163 163 165 171 178 178 173 177 180 178 178 172 163 157 157 159 160 156 151 154 162 160 160 166 169 173 169 134 116 124 127 135 139 149 149 144 145 141 140 143 152 160 166 172 169 162 152 144 136 125 118 106 95
213 215 224 238 238 231 214 212 221 238 168 123 124 5 289 237 217 239 226 230 195 174 187 179 187 205 191 180 166 163 164 167 166 160 161 158 156 158 158 162 165 166 164 166 167 166 171 176 181 184 176 174 176 176 176 171 165 160 161 161 161 155 151 157 162 160 160 163 168 177 160 111 83 103 104 127 138 147 151 150 150 147 146 146 160 169 176 186 193 197 184 162 145 131 123 107 100
205 216 223 230 232 229 207 196 205 222 136 127 121 11 312 221 164 240 219 223 200 174 189 181 187 216 197 167 156 157 161 167 165 157 159 158 155 155 157 162 164 166 167 170 171 172 177 178 179 185 184 185 184 176 168 168 168 163 163 163 163 159 158 161 161 158 157 161 161 159 141 130 140 99 101 138 127 131 148 154 155 157 158 162 176 182 191 196 203 217 229 225 196 156 139 112 101
193 211 223 225 230 229 207 196 192 140 136 134 106 26 330 341 142 213 185 200 192 172 178 169 168 166 140 142 149 157 160 164 163 160 160 160 161 159 159 162 164 168 168 169 175 180 180 178 182 184 184 188 184 173 170 171 168 165 163 163 161 163 166 162 158 153 152 171 159 147 146 153 156 122 142 163 125 130 152 165 165 169 180 189 194 200 207 211 214 220 234 247 254 261 248 185 257
200 215 221 227 239 211 154 193 190 206 160 87 44 27 335 332 17 214 197 191 181 173 172 165 150 131 134 143 151 157 160 162 162 164 163 162 165 163 163 164 166 168 167 168 178 184 180 179 184 184 186 188 175 168 180 174 160 158 158 161 157 163 170 161 158 155 159 180 164 155 161 151 140 137 151 138 129 133 139 162 169 176 194 210 217 219 224 227 228 230 238 244 253 269 276 238 261
211 221 224 232 241 124 173 210 215 234 286 310 307 340 310 302 322 272 225 192 185 187 175 168 158 144 149 154 155 158 160 163 163 166 166 165 167 167 166 166 168 168 165 167 177 183 182 180 182 186 190 186 166 161 174 166 154 152 154 158 156 166 170 164 169 167 173 179 166 165 161 152 142 132 123 115 132 135 138 157 156 169 189 210 227 234 244 246 243 244 250 256 258 256 239 219 227
209 216 231 241 221 217 202 203 216 234 277 290 295 298 285 276 280 272 234 198 197 198 182 178 168 155 158 159 159 160 161 164 166 169 169 169 170 170 169 165 167 167 165 168 176 180 181 178 181 189 186 174 160 158 164 160 155 153 157 156 159 173 167 166 173 169 177 172 162 166 147 136 116 97 92 94 112 127 138 148 153 182 189 198 214 224 245 254 252 253 258 259 258 250 233 225 219
212 216 234 253 227 230 190 183 208 229 262 276 278 283 300 302 275 262 231 212 207 196 184 182 170 159 162 162 161 162 163 165 168 171 170 171 170 169 169 166 167 168 166 167 174 180 180 177 180 184 174 163 157 157 163 160 155 153 158 155 158 174 161 156 165 161 167 161 157 145 118 103 91 84 76 76 75 91 101 104 129 194 205 210 207 207 227 239 240 246 255 256 253 250 247 251 250
222 218 226 226 221 223 159 170 197 230 259 267 277 294 309 290 271 258 231 220 208 183 176 171 168 164 163 162 163 165 164 165 168 169 169 168 167 166 166 166 167 167 165 166 174 181 180 176 175 172 163 160 157 155 159 155 151 154 161 158 158 164 153 150 156 154 150 145 143 124 109 105 103 103 93 93 83 81 108 142 207 247 259 258 237 219 222 229 231 235 247 254 253 252 251 254 260
223 225 214 214 220 218 192 194 214 242 261 270 285 292 285 275 274 265 226 211 166 170 169 162 164 164 165 165 166 166 164 165 165 165 165 165 165 165 164 163 165 165 165 168 174 177 176 173 169 164 161 158 156 154 152 153 154 155 160 158 152 148 143 148 148 142 138 136 136 125 128 148 147 142 155 170 178 183 198 208 222 238 241 251 251 235 228 231 235 237 245 253 256 253 248 247 246
221 229 209 209 220 221 227 236 244 251 261 268 275 277 269 273 282 263 217 195 170 172 165 158 161 166 169 168 166 165 164 165 164 163 163 165 167 168 166 164 166 166 167 168 170 169 168 170 165 160 160 155 153 152 151 155 151 148 152 148 142 137 139 148 142 135 134 135 136 136 144 150 149 160 183 202 203 199 199 202 216 236 245 252 257 253 249 246 245 246 248 251 257 257 251 251 245
214 223 218 208 211 213 223 230 241 247 254 260 263 265 260 268 271 235 197 183 171 168 161 158 163 169 172 170 166 164 165 165 166 165 163 168 170 167 168 168 166 165 168 167 164 163 163 165 161 157 158 156 152 149 151 150 142 142 143 138 132 130 137 138 128 129 131 130 133 135 142 142 151 169 185 214 227 213 204 210 225 241 256 260 263 263 264 265 261 257 256 252 254 258 254 255 252
203 218 222 219 221 214 215 223 234 242 245 246 253 262 254 230 245 211 166 170 175 166 161 163 168 171 172 171 167 165 166 167 167 165 164 169 170 167 168 167 162 164 169 165 160 162 160 158 157 157 158 156 150 147 148 141 138 139 134 133 134 132 136 132 133 145 137 138 151 148 151 158 168 185 213 241 247 249 238 234 246 253 259 264 261 258 262 266 266 264 262 257 253 254 253 254 256
189 210 221 225 232 231 229 232 232 236 238 232 241 257 246 211 233 203 151 161 174 166 163 169 173 172 171 170 167 166 166 167 168 167 166 167 168 170 167 162 161 165 168 164 161 162 159 158 155 154 154 153 148 145 144 138 137 138 135 141 148 146 144 146 157 158 148 162 178 170 167 178 190 218 247 262 268 289 293 275 272 269 268 274 272 266 265 266 267 270 269 267 264 261 256 256 259
201 201 223 220 223 232 226 226 226 227 225 214 228 244 226 209 208 153 145 157 169 170 166 170 175 172 170 169 168 166 165 166 166 166 168 165 165 169 165 161 162 163 166 165 162 160 160 158 149 146 151 149 146 144 140 138 140 141 145 153 154 153 153 154 160 156 165 174 172 175 170 171 172 158 155 31 6 353 329 306 298 290 282 280 281 278 275 274 275 276 274 272 271 267 263 261 260
212 209 234 216 211 227 214 211 215 219 217 202 216 228 205 193 165 124 144 162 167 170 169 172 176 171 169 169 165 162 161 162 162 162 164 159 149 156 166 165 163 162 168 167 162 161 159 153 145 147 153 149 149 147 141 143 149 151 156 159 153 155 156 155 161 160 163 156 147 157 149 148 147 134 123 16 345 330 316 308 307 300 291 284 286 289 287 286 286 284 278 272 266 265 266 265 261
208 205 224 224 226 215 187 191 199 204 202 195 219 240 193 156 127 129 155 167 172 175 176 174 172 170 169 165 160 157 156 160 165 162 160 157 144 151 172 169 165 166 168 167 162 161 156 151 153 158 158 155 154 149 146 149 152 156 158 154 151 154 159 157 154 148 140 131 131 136 131 136 140 141 351 340 326 325 321 316 314 304 298 294 292 290 288 289 290 288 285 282 277 271 266 265 266
204 204 207 214 225 181 160 183 196 197 189 193 218 233 163 138 134 159 174 175 180 183 176 174 175 172 166 159 155 155 155 161 170 167 159 166 164 163 169 168 171 173 170 167 159 156 156 157 162 163 159 157 155 152 152 154 153 156 155 153 159 155 151 147 136 129 125 122 119 112 99 95 59 0 350 345 334 329 324 320 313 304 305 306 300 294 295 296 290 287 289 288 286 283 278 276 274
202 209 208 198 205 192 158 176 195 201 191 190 215 228 157 142 156 176 187 180 182 188 179 175 170 163 158 154 155 154 154 158 168 171 161 167 176 171 165 167 175 176 173 168 158 159 164 164 165 163 160 155 155 156 155 156 157 154 151 156 161 148 141 143 140 136 134 118 102 91 29 15 4 357 348 340 334 324 323 323 316 313 318 318 314 313 311 307 301 296 292 289 286 284 284 285 283
191 204 215 190 198 207 169 159 185 201 202 193 209 234 196 138 166 180 188 181 185 197 186 160 118 105 116 116 119 128 138 150 165 176 167 169 179 173 167 170 173 172 170 167 160 168 172 167 166 165 162 157 158 160 157 159 156 149 150 154 147 135 133 134 133 131 121 99 89 61 351 2 359 349 340 340 344 333 334 335 327 326 326 321 319 320 317 313 310 306 301 296 293 288 285 284 284
187 192 201 186 195 209 191 157 169 186 203 201 201 218 186 147 173 178 180 182 165 79 59 79 92 108 124 115 111 124 139 153 169 185 176 173 174 168 169 174 173 168 170 174 169 172 175 170 167 166 165 163 162 162 159 156 154 153 154 146 129 119 116 101 94 79 58 52 50 6 345 346 333 328 333 339 345 339 339 331 322 323 322 321 322 322 319 315 312 309 306 302 298 294 290 286 284
193 185 193 194 191 203 199 150 153 182 199 202 199 207 188 172 183 180 174 150 101 77 73 70 79 107 133 138 138 139 147 155 169 185 178 177 173 165 171 175 176 172 174 183 179 175 176 170 168 167 164 164 162 162 158 150 152 156 148 136 127 122 126 120 116 110 89 74 12 347 336 328 323 329 340 336 333 332 329 320 316 320 320 319 322 321 318 316 313 310 308 305 301 298 295 293 291
192 184 196 203 194 195 192 154 145 187 204 198 199 205 189 183 186 180 163 124 92 93 104 104 118 136 131 136 144 145 147 156 177 182 172 181 180 169 173 176 182 179 173 181 178 173 174 169 169 168 164 164 162 159 154 150 155 155 147 142 137 133 137 137 135 137 144 161 40 1 338 338 329 328 330 317 315 322 321 316 318 322 321 317 319 321 318 317 314 310 309 307 305 302 300 298 296
191 191 196 202 204 190 178 164 149 182 211 198 194 205 191 186 186 170 154 126 117 136 130 131 152 160 146 144 158 169 175 184 192 182 170 183 190 180 184 187 189 183 172 170 166 163 167 169 170 167 166 166 160 156 154 155 159 155 153 155 152 145 141 147 160 164 171 178 159 159 196 211 301 311 311 296 301 317 315 315 320 321 319 316 319 322 319 317 314 312 310 306 304 304 305 302 296
195 201 200 202 203 173 153 161 156 176 215 193 183 202 184 160 145 138 131 126 147 169 150 151 159 163 159 155 163 176 185 191 190 182 173 178 193 197 201 202 193 180 170 165 163 163 169 176 175 168 165 160 154 157 157 158 159 154 156 161 165 166 158 169 195 196 186 184 182 196 210 222 253 274 283 282 279 287 298 306 315 315 315 317 320 321 318 317 315 313 309 303 305 305 306 305 297
209 208 204 205 193 182 168 166 164 176 223 206 183 196 171 119 92 98 115 127 153 169 150 156 162 165 167 161 165 175 179 182 181 182 174 170 183 192 205 218 202 180 171 165 166 171 176 180 178 170 166 159 154 158 157 155 155 153 154 155 167 190 178 177 216 208 172 159 194 227 245 268 290 289 286 284 278 281 292 302 308 306 310 313 314 316 316 316 314 311 309 306 307 306 306 306 300
214 215 215 209 186 191 180 151 157 167 211 213 184 191 183 158 148 122 126 143 160 169 156 155 160 161 161 162 165 168 171 175 177 179 173 172 182 184 195 219 215 193 174 163 165 168 166 168 169 165 160 157 157 160 159 155 156 158 162 161 163 174 138 113 73 4 288 235 264 292 294 312 322 308 297 294 289 291 297 307 315 316 319 314 307 313 315 313 312 311 312 312 309 306 305 307 304
205 215 230 228 189 185 146 144 161 174 199 197 191 201 190 180 176 147 147 165 171 181 178 169 159 156 161 167 165 166 173 176 178 176 170 174 181 178 185 202 200 180 163 158 161 160 157 153 155 153 150 155 157 158 156 150 151 157 162 167 167 166 163 166 184 243 227 169 18 356 339 343 343 330 320 311 300 297 305 316 328 333 336 329 322 325 316 311 315 315 314 312 309 308 308 309 306
202 195 213 229 188 186 174 168 183 194 193 182 198 221 189 178 183 158 161 177 171 180 189 180 171 165 170 174 165 163 170 177 181 175 168 174 175 170 177 185 182 170 161 161 153 148 150 146 145 146 146 152 152 148 146 144 149 158 166 173 182 192 209 220 211 204 127 67 2 357 351 344 342 334 329 324 311 307 319 331 338 341 344 339 336 338 324 314 316 312 312 313 311 312 311 307 305
196 169 183 190 177 187 187 190 202 203 164 154 198 226 224 196 183 163 168 177 170 177 189 185 184 181 180 181 171 165 172 181 185 175 166 173 173 172 179 181 181 168 154 149 140 137 141 141 143 148 151 153 149 147 148 151 161 175 188 182 182 185 185 189 182 64 22 22 345 339 338 333 334 331 327 328 324 326 335 337 337 340 339 332 331 335 333 329 317 304 303 306 311 314 311 304 306
173 151 173 184 183 191 195 206 211 201 180 193 196 206 233 216 165 159 172 180 176 178 186 191 192 190 188 185 176 172 178 184 185 175 165 167 168 170 175 180 186 169 145 138 132 131 133 134 140 144 144 143 144 150 151 157 173 188 208 192 194 198 185 127 106 17 351 347 320 322 327 325 330 333 330 330 334 341 345 337 330 329 327 322 319 320 322 319 312 309 306 301 303 309 309 304 303
152 154 175 177 188 201 207 218 216 202 216 222 195 184 216 220 158 162 180 188 186 179 183 193 195 195 193 188 180 175 176 178 179 173 159 153 157 164 172 177 173 156 144 139 133 131 130 129 132 134 131 127 136 153 152 188 218 223 246 247 249 253 245 97 141 218 261 291 305 325 336 330 341 345 340 343 347 353 349 338 330 329 329 326 323 322 318 313 308 308 309 302 296 296 301 303 300
153 173 188 178 195 203 207 227 229 221 222 224 206 188 208 218 174 174 187 191 189 181 183 189 192 195 195 190 181 175 172 171 174 167 149 148 157 169 179 175 165 154 151 147 143 141 137 132 133 140 142 137 149 172 215 265 274 282 283 265 243 229 205 194 202 229 268 302 294 340 0 346 359 358 354 353 352 352 342 336 335 334 334 331 329 330 326 322 316 310 305 300 300 296 290 289 289
169 186 193 183 191 192 203 209 215 229 226 221 209 193 204 220 194 175 182 186 185 184 185 185 187 192 194 190 182 176 172 169 169 160 151 158 160 164 169 165 162 167 162 151 144 143 142 147 159 192 182 180 194 210 282 290 294 292 287 272 241 229 214 210 212 227 249 275 317 26 35 15 9 1 0 357 354 353 344 341 341 337 335 333 331 332 332 332 328 325 319 310 309 302 289 281 276
187 193 191 191 188 183 204 200 200 221 224 210 199 187 201 224 209 169 176 183 185 187 192 188 186 188 190 188 180 172 170 168 163 152 149 156 153 149 152 152 154 159 156 152 147 144 149 157 160 210 190 180 208 274 303 299 293 282 273 259 246 240 230 222 206 191 175 110 68 52 43 31 21 11 7 4 2 2 355 352 351 347 344 343 342 344 346 345 342 341 338 328 324 317 306 295 285
193 195 188 193 189 183 201 199 200 212 191 150 188 189 206 219 187 162 175 186 187 189 195 191 186 186 185 182 173 162 162 162 155 145 143 148 150 151 154 156 156 154 152 152 149 148 157 155 154 188 192 180 247 288 302 298 282 260 240 220 215 211 197 183 160 142 112 73 63 56 45 36 29 22 18 15 15 14 9 5 3 2 359 357 359 359 358 356 353 352 348 343 341 335 327 316 305
195 201 196 203 201 192 203 202 203 205 180 158 176 190 215 210 153 134 160 178 185 189 189 181 182 184 176 168 161 152 152 156 151 143 145 150 155 159 162 159 156 154 153 152 152 155 157 152 155 175 193 194 241 286 5 288 246 221 205 188 166 154 145 135 120 102 83 67 61 55 48 45 40 33 30 26 24 22 19 14 10 10 8 7 6 3 2 0 356 355 352 349 348 345 341 334 325
193 200 203 209 209 202 203 202 229 208 179 165 176 191 210 164 116 109 137 163 182 186 175 168 174 169 153 153 154 144 149 157 151 142 146 151 154 159 160 156 152 152 153 154 158 161 157 149 146 142 141 143 136 131 126 168 212 193 165 152 133 125 117 107 100 89 79 70 65 61 55 53 50 43 36 30 27 24 21 16 13 11 9 8 5 1 0 358 354 354 351 348 346 345 343 339 335
184 199 208 206 212 219 201 138 55 86 198 179 184 190 144 133 153 158 165 171 177 178 170 169 171 160 151 153 150 145 154 158 151 147 150 152 154 157 156 154 154 156 155 156 157 156 150 143 143 130 119 124 137 158 166 158 163 152 143 134 117 110 102 96 91 83 76 72 68 66 61 56 51 46 39 32 29 25 19 15 13 10 8 6 4 0 359 357 356 357 354 349 347 346 343 339 337
189 198 201 194 214 238 221 195 168 195 217 188 184 197 184 175 175 160 172 178 172 173 172 171 171 163 156 154 152 154 159 155 149 154 157 156 156 158 156 154 156 155 150 150 151 146 138 129 133 132 121 120 129 139 139 119 120 129 122 113 107 104 99 93 88 82 79 77 72 67 62 56 50 44 39 33 28 20 15 16 15 11 8 6 3 2 1 359 1 2 359 356 353 351 348 344 340
223 210 195 191 205 211 206 211 198 198 215 204 195 207 202 193 180 165 175 179 174 175 174 172 175 172 163 156 156 156 153 149 150 154 155 153 154 156 156 156 157 152 147 155 155 141 131 126 126 122 113 114 114 103 91 91 106 118 112 107 104 100 96 90 87 83 81 78 73 67 59 53 47 39 32 29 23 17 17 19 18 15 13 10 7 6 5 4 6 6 4 3 0 358 356 353 349
229 223 204 202 213 211 206 215 217 205 211 211 202 205 208 204 182 170 175 178 177 178 178 179 182 180 171 160 157 155 152 151 152 153 152 151 152 154 157 159 158 154 154 162 156 135 127 129 126 117 111 108 98 77 78 98 111 114 110 107 104 99 95 92 89 86 81 75 69 62 54 48 44 36 29 27 23 22 24 23 22 20 19 17 14 13 11 9 11 11 8 6 5 4 3 1 357
201 212 202 198 207 217 215 213 219 224 219 209 203 209 211 186 168 172 177 177 179 182 183 184 185 181 170 159 156 153 151 151 151 151 151 150 152 155 159 161 158 154 153 152 143 131 131 137 133 124 113 100 85 77 97 112 115 114 111 108 105 100 96 93 90 85 78 71 66 60 53 47 44 38 33 31 29 29 30 29 28 26 24 23 21 19 17 15 15 14 12 10 9 8 7 4 359
196 208 202 200 200 201 211 211 208 221 233 224 214 216 186 138 162 183 182 177 182 187 184 181 181 176 163 155 155 150 148 150 150 151 150 150 155 160 162 161 156 151 148 142 135 134 138 140 131 122 113 94 76 88 113 120 118 114 110 107 103 99 95 91 87 82 76 70 65 60 55 49 46 44 40 38 38 37 36 35 33 32 30 29 28 25 22 19 18 18 18 16 15 14 12 6 358